Weerstation Grootegast  Weerstation Grootegast


15 daagse weersverwachting Grenoble (FR)

  • Overzicht
  • Per uur
  • 15 dagen
  • Extra
  • Vergelijk
  • Kaarten
  • Dagkaart
  • Meer »
  • Info
  • Statistieken
  • Directe link
    Temp 6h Neerslag Wind  
 08:02     17:39    Daglengte: 9:37 Vandaag
07:00
11.2 mm
1
13:00
9.2 mm
1
19:00
18.9 mm
1
 08:01     17:40    Daglengte: 9:39 Morgen
01:00
11.4 mm
2
07:00
32.8 mm
2
13:00
11°
40.3 mm
2
warningclass
19:00
41.6 mm
1
 08:00     17:42    Daglengte: 9:42 Zaterdag 30 Jan
01:00
25.7 mm
1
07:00
7.1 mm
2
13:00
50.8 mm
1
19:00
65.1 mm
1
Locatie info
Region: Rhône-Alpes
Latitude: 45.1667°N
Longitude: 5.7167°E
221 masl
Temp/Neerslag /Baro Onweer/DauwpuntSneeuw
    Temp Baro 1h Neerslag Dauwpunt Wind UV BewolkingSneeuw  
 08:02     17:39    Daglengte: 9:37 Vandaag
03:00
Voelt als: 5.1°
1018.8 hPa 2.4 mm
48%
3.8°
1
Windvlaag: -0.9 m/s
88%9 cm
04:00
Voelt als: 4.7°
1018.1 hPa 1.9 mm
82%
3.7°
1
Windvlaag: -0.8 m/s
89%9 cm
05:00
Voelt als: 4.8°
1017.7 hPa 1.5 mm
82%
3.6°
2
Windvlaag: -0.5 m/s
87%9 cm
06:00
Voelt als: 5.0°
1017.1 hPa 2.2 mm
82%
3.7°
2
Windvlaag: -0.5 m/s
90%9 cm
07:00
Voelt als: 5.5°
1016.9 hPa 3.2 mm
82%
4.3°
1
Windvlaag: -0.3 m/s
91%9 cm
08:00
Voelt als: 6.2°
1017.1 hPa 2.2 mm
82%
4.5°
1
Windvlaag: -0 m/s
91%8 cm
09:00
Voelt als: 6.4°
1017.6 hPa
81%
5.1°
1
Windvlaag: -0.4 m/s
90%8 cm
10:00
Voelt als: 7.0°
1017.6 hPa
82%
5.5°
1
Windvlaag: -0.2 m/s
91%8 cm
11:00
Voelt als: 8.0°
1017.3 hPa 1.8 mm
82%
5.9°
1
Windvlaag: -0.7 m/s
91%8 cm
12:00
Voelt als: 8.7°
1017.5 hPa 2.3 mm
82%
6.4°
1
Windvlaag: -0.9 m/s
91%7 cm
13:00
1017.0 hPa 2.9 mm
82%
6.8°
1
Windvlaag: -0.6 m/s
91%7 cm
14:00
Voelt als: 9.0°
1016.5 hPa 2.5 mm
82%
6.9°
1
Windvlaag: -0.2 m/s
91%7 cm
15:00
Voelt als: 9.1°
1016.0 hPa 3.2 mm
82%
6.7°
1
Windvlaag: 0.2 m/s
91%6 cm
16:00
Voelt als: 9.2°
1016.0 hPa 3.8 mm
82%
6.8°
1
Windvlaag: 0 m/s
91%6 cm
17:00
Voelt als: 9.1°
1016.3 hPa 3.4 mm
82%
6.7°
1
Windvlaag: -0.2 m/s
90%6 cm
18:00
Voelt als: 8.6°
1016.4 hPa 2.3 mm
82%
6.3°
1
Windvlaag: -0 m/s
88%6 cm
19:00
Voelt als: 8.4°
1016.5 hPa 3.6 mm
82%
6.2°
1
Windvlaag: -0.7 m/s
89%6 cm
20:00
Voelt als: 7.7°
1016.4 hPa
82%
6.7°
1
Windvlaag: -0.6 m/s
89%5 cm
21:00
Voelt als: 7.9°
1016.0 hPa 2.9 mm
82%
6.5°
1
Windvlaag: -0.6 m/s
85%5 cm
22:00
Voelt als: 7.3°
1015.7 hPa 2.2 mm
81%
6.6°
2
Windvlaag: -0.5 m/s
87%5 cm
23:00
Voelt als: 7.2°
1015.2 hPa
79%
6.6°
2
Windvlaag: -0.2 m/s
88%5 cm
 08:01     17:40    Daglengte: 9:39 Morgen
00:00
Voelt als: 7.1°
1014.6 hPa 2.5 mm
82%
6.6°
2
Windvlaag: 0.1 m/s
91%5 cm
01:00
Voelt als: 7.0°
1013.9 hPa 3.9 mm
82%
6.6°
2
Windvlaag: 0.3 m/s
91%5 cm
02:00
Voelt als: 7.6°
1012.9 hPa 4.2 mm
82%
6.7°
2
Windvlaag: 0.3 m/s
91%5 cm
03:00
Voelt als: 7.3°
1012.1 hPa 4.6 mm
82%
7.0°
2
Windvlaag: 0.7 m/s
91%4 cm
04:00
Voelt als: 7.5°
1011.2 hPa 5.5 mm
82%
7.1°
2
Windvlaag: 2.1 m/s
91%4 cm
05:00
Voelt als: 8.0°
1010.4 hPa 5.5 mm
82%
7.1°
2
Windvlaag: 3.1 m/s
91%4 cm
06:00
10°
Voelt als: 8.4°
1010.2 hPa 6.7 mm
82%
7.3°
2
Windvlaag: 2.8 m/s
91%4 cm
07:00
Voelt als: 8.4°
1010.4 hPa 6.3 mm
82%
7.0°
2
Windvlaag: 2 m/s
91%4 cm
08:00
Voelt als: 8.1°
1011.1 hPa 6.7 mm
82%
7.1°
2
Windvlaag: 0.6 m/s
90%4 cm
09:00
Voelt als: 8.2°
1012.1 hPa 6.9 mm
82%
7.1°
2
Windvlaag: -0.5 m/s
87%4 cm
10:00
Voelt als: 8.9°
1012.7 hPa 6.6 mm
82%
7.0°
1
Windvlaag: -0.8 m/s
81%3 cm warningclass
11:00
10°
Voelt als: 9.3°
1013.1 hPa 5.6 mm
82%
7.7°
2
Windvlaag: -2 m/s
58%3 cm warningclass
12:00
11°
1013.1 hPa 7.2 mm
82%
7.6°
1
Windvlaag: -2.1 m/s
49%3 cm warningclass
13:00
11°
1012.6 hPa 7.2 mm
82%
6.7°
2
Windvlaag: -1.6 m/s
58%3 cm warningclass
14:00
11°
1012.4 hPa 7.0 mm
82%
6.3°
2
Windvlaag: -1.5 m/s
58%3 cm warningclass
15:00
11°
1012.0 hPa 6.8 mm
82%
6.5°
2
Windvlaag: -1.4 m/s
71%2 cm
16:00
10°
1012.0 hPa 6.9 mm
80%
6.4°
1
Windvlaag: -0.4 m/s
67%2 cm
17:00
10°
Voelt als: 9.5°
1012.2 hPa 6.9 mm
81%
6.3°
1
Windvlaag: 0.1 m/s
71%2 cm
18:00
Voelt als: 8.1°
1012.7 hPa 7.0 mm
81%
5.9°
1
Windvlaag: 0.9 m/s
57%2 cm
19:00
Voelt als: 7.7°
1013.2 hPa 7.0 mm
82%
5.5°
1
Windvlaag: 0.8 m/s
55%2 cm
20:00
Voelt als: 7.7°
1013.5 hPa 7.1 mm
82%
5.2°
2
Windvlaag: 0.4 m/s
74%2 cm
21:00
Voelt als: 7.2°
1014.0 hPa 5.0 mm
82%
5.0°
2
Windvlaag: 0 m/s
67%2 cm
22:00
Voelt als: 6.3°
1014.7 hPa 6.9 mm
100%
5.0°
1
Windvlaag: -0.6 m/s
72%2 cm
23:00
Voelt als: 6.2°
1014.8 hPa
92%
5.2°
1
Windvlaag: -0.9 m/s
77%2 cm
 08:00     17:42    Daglengte: 9:42 Zaterdag 30 Jan
00:00
Voelt als: 6.2°
1014.7 hPa 6.8 mm
85%
5.1°
1
Windvlaag: -1 m/s
77%2 cm
01:00
Voelt als: 5.8°
1013.7 hPa
67%
4.4°
1
Windvlaag: -1 m/s
55%2 cm
02:00
Voelt als: 5.4°
1012.6 hPa
21%
4.5°
2
Windvlaag: -0.8 m/s
62%2 cm
03:00
Voelt als: 3.9°
1011.2 hPa
21%
3.7°
2
Windvlaag: -0.5 m/s
31%2 cm
04:00
Voelt als: 3.3°
1009.8 hPa
21%
3.0°
2
Windvlaag: -0.5 m/s
82%2 cm
05:00
Voelt als: 2.9°
1008.5 hPa
21%
2.8°
2
Windvlaag: -0.6 m/s
90%2 cm
06:00
Voelt als: 3.7°
1007.2 hPa
88%
2.5°
2
Windvlaag: -0.3 m/s
100%2 cm
07:00
Voelt als: 4.6°
1005.9 hPa 7.1 mm
100%
3.5°
2
Windvlaag: 0.2 m/s
100%2 cm
08:00
Voelt als: 4.7°
1004.9 hPa 7.3 mm
100%
3.9°
2
Windvlaag: 1.3 m/s
100%2 cm
09:00
Voelt als: 5.2°
1004.0 hPa 7.7 mm
100%
4.2°
2
Windvlaag: 1.7 m/s
100%2 cm
10:00
Voelt als: 6.0°
1002.8 hPa 8.1 mm
100%
4.9°
2
Windvlaag: 1.7 m/s
100%2 cm
11:00
Voelt als: 6.9°
1002.0 hPa 8.5 mm
100%
5.9°
1
Windvlaag: 1.6 m/s
100%2 cm
12:00
Voelt als: 7.6°
1001.6 hPa 8.9 mm
100%
6.3°
1
Windvlaag: 1.5 m/s
100%2 cm
13:00
Voelt als: 7.7°
1001.2 hPa 10.3 mm
100%
6.3°
1
Windvlaag: 1.3 m/s
100%2 cm
14:00
Voelt als: 7.8°
1000.8 hPa 11.3 mm
100%
6.5°
1
Windvlaag: 1.1 m/s
100%2 cm
15:00
Voelt als: 7.6°
1000.9 hPa 10.8 mm
100%
6.1°
1
Windvlaag: 0.7 m/s
99%2 cm
16:00
Voelt als: 7.2°
1000.8 hPa 9.7 mm
100%
6.2°
1
Windvlaag: 0.7 m/s
100%2 cm
17:00
Voelt als: 7.1°
1000.9 hPa 9.4 mm
100%
6.2°
1
Windvlaag: 0.6 m/s
98%2 cm
18:00
Voelt als: 6.8°
1000.9 hPa 14.9 mm
99%
5.8°
1
Windvlaag: 0.3 m/s
96%2 cm
19:00
1001.1 hPa 9.0 mm
91%
5.6°
1
Windvlaag: 0.8 m/s
97%2 cm
20:00
Voelt als: 6.6°
1001.1 hPa 15.3 mm
93%
5.3°
1
Windvlaag: 10.1 m/s
97%2 cm
21:00
Voelt als: 6.3°
1001.1 hPa 15.3 mm
100%
5.0°
1
Windvlaag: 10 m/s
87%2 cm
22:00
Voelt als: 6.2°
1001.2 hPa 15.3 mm
100%
4.7°
1
Windvlaag: 9.3 m/s
78%2 cm
23:00
Voelt als: 6.0°
1001.2 hPa
87%
4.4°
1
Windvlaag: 9.3 m/s
74%2 cm
 07:59     17:43    Daglengte: 9:44 Zondag 31 Jan
00:00
Voelt als: 5.8°
1001.2 hPa
67%
4.2°
1
Windvlaag: 5.8 m/s
71%2 cm
01:00
Voelt als: 5.7°
1001.0 hPa
35%
3.9°
1
Windvlaag: 0.3 m/s
80%2 cm
Temp/Neerslag /Baro Onweer/DauwpuntSneeuw
    Temp Baro Neerslag Dauwpunt Wind BewolkingSneeuw  
 08:02     17:39    Daglengte: 9:37 Vandaag
04:00
Voelt als: 4.7°
1018.1 hPa 4.4 mm 3.7°
1
89%9 cm
07:00
Voelt als: 5.5°
1016.9 hPa 6.9 mm 4.3°
1
91%9 cm
10:00
Voelt als: 7.0°
1017.6 hPa 2.2 mm 5.5°
1
91%8 cm
13:00
1017.0 hPa 7.0 mm 6.8°
1
91%7 cm
16:00
Voelt als: 9.2°
1016.0 hPa 9.6 mm 6.8°
1
91%6 cm
19:00
Voelt als: 8.4°
1016.5 hPa 9.4 mm 6.2°
1
89%6 cm
22:00
Voelt als: 7.3°
1015.7 hPa 5.1 mm 6.6°
2
87%5 cm
 08:01     17:40    Daglengte: 9:39 Morgen
01:00
Voelt als: 7.0°
1013.9 hPa 6.4 mm 6.6°
2
91%5 cm
04:00
Voelt als: 7.5°
1011.2 hPa 14.3 mm 7.1°
2
91%4 cm
07:00
Voelt als: 8.4°
1010.4 hPa 18.5 mm 7.0°
2
91%4 cm
10:00
Voelt als: 8.9°
1012.7 hPa 20.3 mm 7.0°
1
81%3 cm warningclass
13:00
11°
1012.6 hPa 20.1 mm 6.7°
2
58%3 cm warningclass
16:00
10°
1012.0 hPa 20.7 mm 6.4°
1
67%2 cm
19:00
Voelt als: 7.7°
1013.2 hPa 20.9 mm 5.5°
1
55%2 cm
22:00
Voelt als: 6.3°
1014.7 hPa 18.9 mm 5.0°
1
72%2 cm
 08:00     17:42    Daglengte: 9:42 Zaterdag 30 Jan
01:00
Voelt als: 5.8°
1013.7 hPa 6.8 mm 4.4°
1
55%2 cm
04:00
Voelt als: 3.3°
1009.8 hPa   3.0°
2
82%2 cm
07:00
Voelt als: 4.6°
1005.9 hPa 7.1 mm 3.5°
2
100%2 cm
10:00
Voelt als: 6.0°
1002.8 hPa 23.1 mm 4.9°
2
100%2 cm
13:00
Voelt als: 7.7°
1001.2 hPa 27.7 mm 6.3°
1
100%2 cm
16:00
Voelt als: 7.2°
1000.8 hPa 31.8 mm 6.2°
1
100%2 cm
19:00
1001.1 hPa 33.3 mm 5.6°
1
97%2 cm
22:00
Voelt als: 6.2°
1001.2 hPa 45.8 mm 4.7°
1
78%2 cm
 07:59     17:43    Daglengte: 9:44 Zondag 31 Jan
01:00
Voelt als: 5.7°
1001.0 hPa   3.9°
1
80%2 cm
04:00
Voelt als: 4.4°
1000.3 hPa 92.2 mm 3.3°
1
85%
07:00
Voelt als: 3.2°
999.3 hPa 92.4 mm 2.8°
1
92%
10:00
Voelt als: 5.9°
1000.2 hPa 94.8 mm 3.8°
1
91%
13:00
Voelt als: 8.0°
1001.0 hPa 98.5 mm 4.9°
1
91%
16:00
Voelt als: 8.0°
1000.8 hPa 101.0 mm 5.1°
1
91%
19:00
1000.7 hPa 109.8 mm 5.2°
1
92%
22:00
Voelt als: 6.9°
999.2 hPa 117.7 mm 5.1°
1
92%
 07:57     17:45    Daglengte: 9:48 Maandag 01 Feb
01:00
Voelt als: 5.9°
997.8 hPa 126.7 mm 5.1°
1
92%
04:00
Voelt als: 5.5°
997.0 hPa 133.5 mm 4.9°
1
91%
07:00
Voelt als: 5.0°
996.5 hPa 143.6 mm 4.6°
1
90%
10:00
Voelt als: 7.3°
998.0 hPa 149.9 mm 5.7°
1
89%
13:00
999.4 hPa 154.8 mm 6.6°
1
89%
16:00
1001.6 hPa 159.4 mm 6.8°
1
90%
19:00
Voelt als: 8.7°
1003.9 hPa 165.5 mm 7.0°
1
92%
22:00
Voelt als: 7.9°
1008.0 hPa 169.2 mm 6.7°
1
92%
 07:56     17:46    Daglengte: 9:50 Dinsdag 02 Feb
01:00
Voelt als: 6.3°
1011.9 hPa 169.3 mm 6.3°
1
92%
04:00
Voelt als: 6.4°
1013.2 hPa 169.3 mm 6.0°
1
87%
07:00
Voelt als: 6.4°
1014.7 hPa 170.5 mm 5.9°
1
82%
10:00
Voelt als: 9.1°
1014.7 hPa 171.1 mm 6.6°
1
57%
13:00
12°
1014.6 hPa 171.5 mm 6.9°
1
32%
16:00
11°
1014.6 hPa 172.6 mm 6.5°
1
62%
19:00
10°
1014.7 hPa 172.7 mm 6.0°
1
92%
22:00
Voelt als: 7.8°
1014.6 hPa 173.0 mm 5.1°
1
77%
 07:55     17:48    Daglengte: 9:53 Woensdag 03 Feb
01:00
Voelt als: 5.1°
1014.4 hPa 173.0 mm 4.1°
2
62%
04:00
Voelt als: 5.7°
1014.1 hPa 173.0 mm 4.6°
2
74%
07:00
Voelt als: 6.3°
1013.8 hPa 173.0 mm 5.1°
2
87%
10:00
Voelt als: 8.2°
1014.2 hPa 173.0 mm 6.6°
1
89%
13:00
10°
1014.5 hPa 173.0 mm 8.0°
1
91%
16:00
10°
Voelt als: 9.9°
1014.6 hPa 173.0 mm 8.2°
1
79%
19:00
10°
1014.7 hPa 173.2 mm 8.3°
1
66%
22:00
Voelt als: 7.4°
1014.7 hPa 173.3 mm 6.5°
1
43%
 07:54     17:49    Daglengte: 9:55 Donderdag 04 Feb
01:00
Voelt als: 4.3°
1014.7 hPa 347.7 mm 4.7°
2
21%
07:00
Voelt als: 2.0°
1012.2 hPa 358.0 mm 1.9°
2
27%
13:00
17°
1008.6 hPa 380.7 mm 9.6°
1
89%
19:00
14°
1007.5 hPa 398.0 mm 5.5°
1
92%
 07:52     17:51    Daglengte: 9:59 Vrijdag 05 Feb
01:00
13°
1008.6 hPa 418.7 mm 4.8°
1
92%
07:00
13°
1008.5 hPa 425.2 mm 2.3°
1
90%
13:00
17°
1009.0 hPa 425.9 mm 8.7°
1
32%
19:00
14°
1010.2 hPa 426.4 mm 6.5°
1
38%
 07:51     17:52    Daglengte: 10:01 Zaterdag 06 Feb
01:00
Voelt als: 8.6°
1010.8 hPa 426.8 mm 4.6°
1
56%
07:00
Voelt als: 6.8°
1010.3 hPa 427.3 mm 3.9°
1
87%
13:00
Voelt als: -0.1°
1017.9 hPa 427.8 mm 1.8°
3
1%
19:00
Voelt als: 0.3°
1017.7 hPa 428.1 mm 1.7°
2
1%
 07:50     17:53    Daglengte: 10:03 Zondag 07 Feb
01:00
Voelt als: 1.7°
1014.8 hPa 1.2 mm 1.9°
2
84%
07:00
Voelt als: 0.8°
1014.3 hPa 1.1 mm 0.9°
2
84%
13:00
Voelt als: 4.8°
1013.8 hPa 0.6 mm 3.7°
2
84%
19:00
Voelt als: 2.3°
1014.8 hPa 1.1 mm 1.9°
1
83%
 07:48     17:55    Daglengte: 10:07 Maandag 08 Feb
01:00
Voelt als: 1.5°
1015.5 hPa 0.5 mm 0.3°
1
76%
07:00
Voelt als: 1.2°
1014.2 hPa 0.8 mm -0.1°
1
73%
13:00
1013.6 hPa 0.6 mm 3.6°
1
74%
19:00
Voelt als: 3.4°
1014.7 hPa 0.6 mm 2.2°
1
81%
 07:47     17:56    Daglengte: 10:09 Dinsdag 09 Feb
01:00
Voelt als: 2.1°
1015.9 hPa 1.2 mm 0.9°
1
75%
07:00
Voelt als: 0.6°
1015.3 hPa 0.8 mm -0.1°
1
73%
13:00
Voelt als: 5.5°
1014.5 hPa 1.4 mm 3.1°
1
78%
19:00
Voelt als: 3.0°
1015.3 hPa 1.4 mm 1.4°
1
84%
 07:45     17:58    Daglengte: 10:13 Woensdag 10 Feb
01:00
Voelt als: 1.5°
1016.9 hPa 0.6 mm 0.2°
1
75%
07:00
Voelt als: 1.0°
1016.4 hPa 1.2 mm -0.3°
1
76%
13:00
Voelt als: 5.8°
1015.6 hPa   3.2°
1
78%
19:00
1016.1 hPa 0.9 mm 1.4°
1
76%
 07:44     17:59    Daglengte: 10:15 Donderdag 11 Feb
01:00
Voelt als: 1.4°
1017.1 hPa 0.6 mm -0.0°
1
67%
07:00
Voelt als: 0.3°
1016.4 hPa 1.6 mm -1.1°
1
59%
13:00
Voelt als: 5.5°
1015.6 hPa 1.3 mm 2.2°
1
65%
19:00
Voelt als: 2.6°
1016.4 hPa 0.5 mm 0.8°
1
74%
 07:43     18:01    Daglengte: 10:18 Vrijdag 12 Feb
01:00
Voelt als: 0.7°
1017.3 hPa 1.5 mm -0.6°
1
69%
  CAPE Lifted Index Hail Supercell Tornado SRH 3km CL BTM PRES CL TOP PRES Swiss DWD icon SMHI TS
 08:02     17:39    Daglengte: 9:37 Vandaag
03:00 0 J/kg 4.6 K 0 % 0 % 0 % 0 m²/s² 0 0 4.99 61
04:00 0 J/kg 4.3 K 0 % 0 % 0 % 0 m²/s² 0 0 4.54 61
05:00 0 J/kg 3.1 K 0 % 0 % 0 % 0 m²/s² 0 0 3.4 61
06:00 0 J/kg 2.7 K 0 % 0 % 0 % 0 m²/s² 0 0 3.3 61
07:00 0 J/kg 2.3 K 0 % 0 % 0 % 0 m²/s² 0 0 2.72 61
08:00 0 J/kg 3.3 K 0 % 0 % 0 % 0 m²/s² 0 0 5.13 61
09:00 0 J/kg 5.0 K 0 % 0 % 0 % 0 m²/s² 0 0 7.28 3
10:00 0 J/kg 4.9 K 0 % 0 % 0 % 0 m²/s² 0 0 6.55 3
11:00 0 J/kg 5.4 K 0 % 0 % 0 % 0 m²/s² 0 0 5.64 61
12:00 0 J/kg 3.9 K 0 % 0 % 0 % 0 m²/s² 0 0 3.99 61
13:00 0 J/kg 2.0 K 0 % 0 % 0 % 0 m²/s² 0 0 2.21 61
14:00 0 J/kg 1.5 K 0 % 0 % 0 % 0 m²/s² 0 0 1.71 80
15:00 0 J/kg 1.7 K 0 % 0 % 0 % 0 m²/s² 0 0 1.94 63
16:00 0 J/kg 1.7 K 0 % 0 % 0 % 0 m²/s² 0 0 1.94 63
17:00 0 J/kg 1.6 K 0 % 0 % 0 % 0 m²/s² 0 0 2.56 63
18:00 32 J/kg 2.3 K 0 % 0 % 0 % 0 m²/s² 0 0 5.06 80
19:00 57 J/kg 3.0 K 0 % 0 % 0 % 0 m²/s² 0 0 5.61 45
20:00 58 J/kg 3.5 K 0 % 0 % 0 % 0 m²/s² 0 0 5.87 3
21:00 19 J/kg 3.9 K 0 % 0 % 0 % 0 m²/s² 0 0 6.36 45
22:00 0 J/kg 3.7 K 0 % 0 % 0 % 0 m²/s² 0 0 5.62 3
23:00 0 J/kg 3.4 K 0 % 0 % 0 % 0 m²/s² 0 0 4.45 3
 08:01     17:40    Daglengte: 9:39 Morgen
00:00 0 J/kg 3.3 K 0 % 0 % 0 % 0 m²/s² 0 0 3.51 61
01:00 0 J/kg 3.4 K 0 % 0 % 0 % 0 m²/s² 0 0 3.58 61
02:00 0 J/kg 2.4 K 0 % 0 % 0 % 0 m²/s² 0 0 2.55 61
03:00 0 J/kg 2.6 K 0 % 0 % 0 % 0 m²/s² 0 0 2.78 61
04:00 0 J/kg 2.0 K 0 % 0 % 0 % 0 m²/s² 0 0 2.18 63
05:00 0 J/kg 1.4 K 0 % 0 % 0 % 0 m²/s² 0 0 1.58 63
06:00 14 J/kg 2.0 K 0 % 0 % 0 % 0 m²/s² 0 0 2.15 63
07:00 26 J/kg 1.9 K 0 % 0 % 0 % 0 m²/s² 0 0 2.05 80
08:00 0 J/kg -0.6 K 0 % 0 % 0 % 0 m²/s² 0 0 0.12 80
09:00 36 J/kg -1.7 K 0 % 0 % 0 % 0 m²/s² 0 0 -0.29 80
10:00 251 J/kg -0.7 K 0 % 0 % 0 % 0 m²/s² 0 0 1.4 95
11:00 361 J/kg -1.4 K 0 % 0 % 0 % 0 m²/s² 0 0 1.63 95
12:00 422 J/kg -2.0 K 0 % 0 % 0 % 0 m²/s² 0 0 1.54 95
13:00 195 J/kg 0.5 K 0 % 0 % 0 % 0 m²/s² 0 0 2.9 95
14:00 120 J/kg 1.6 K 0 % 0 % 0 % 0 m²/s² 0 0 3.31 95
15:00 177 J/kg 1.5 K 0 % 0 % 0 % 0 m²/s² 0 0 3.15 80
16:00 122 J/kg 2.5 K 0 % 0 % 0 % 0 m²/s² 0 0 4.63 80
17:00 95 J/kg 2.7 K 0 % 0 % 0 % 0 m²/s² 0 0 4.77 3
18:00 97 J/kg 3.0 K 0 % 0 % 0 % 0 m²/s² 0 0 6.45 80
19:00 73 J/kg 4.3 K 0 % 0 % 0 % 0 m²/s² 0 0 6.79 80
20:00 56 J/kg 6.1 K 0 % 0 % 0 % 0 m²/s² 0 0 8.95 80
21:00 45 J/kg 8.3 K 0 % 0 % 0 % 0 m²/s² 0 0 11.57 2
22:00 34 J/kg 9.4 K 0 % 0 % 0 % 0 m²/s² 0 0 14.38 45
23:00 34 J/kg 10.1 K 0 % 0 % 0 % 0 m²/s² 0 0 15.35 2
 08:00     17:42    Daglengte: 9:42 Zaterdag 30 Jan
00:00 25 J/kg 10.6 K 0 % 0 % 0 % 0 m²/s² 0 0 16.51 2
01:00 4 J/kg 11.6 K 0 % 0 % 0 % 0 m²/s² 0 0 17.27 1
02:00 0 J/kg 12.6 K 0 % 0 % 0 % 0 m²/s² 0 0 17.37 1
03:00 0 J/kg 13.3 K 0 % 0 % 0 % 0 m²/s² 0 0 14.65 2
04:00 0 J/kg 9.5 K 0 % 0 % 0 % 0 m²/s² 0 0 10.28 3
05:00 0 J/kg 6.2 K 0 % 0 % 0 % 0 m²/s² 0 0 6.59 3
06:00 0 J/kg 4.5 K 0 % 0 % 0 % 0 m²/s² 0 0 4.71 3
07:00 0 J/kg 4.0 K 0 % 0 % 0 % 0 m²/s² 0 0 4.18 61
08:00 0 J/kg 2.4 K 0 % 0 % 0 % 0 m²/s² 0 0 2.58 61
09:00 0 J/kg 1.1 K 0 % 0 % 0 % 0 m²/s² 0 0 1.4 61
10:00 0 J/kg 0.7 K 0 % 0 % 0 % 0 m²/s² 0 0 0.82 61
11:00 0 J/kg 1.4 K 0 % 0 % 0 % 0 m²/s² 0 0 1.55 61
12:00 0 J/kg 2.6 K 0 % 0 % 0 % 0 m²/s² 0 0 2.75 61
13:00 0 J/kg 3.3 K 0 % 0 % 0 % 0 m²/s² 0 0 3.57 61
14:00 15 J/kg 4.7 K 0 % 0 % 0 % 0 m²/s² 0 0 5.06 63
15:00 0 J/kg 3.4 K 0 % 0 % 0 % 0 m²/s² 0 0 4.54 63
16:00 0 J/kg 1.8 K 0 % 0 % 0 % 0 m²/s² 0 0 2.52 61
17:00 0 J/kg 0.7 K 0 % 0 % 0 % 0 m²/s² 0 0 1.18 80
18:00 0 J/kg 0.2 K 0 % 0 % 0 % 0 m²/s² 0 0 1.16 3
19:00 8 J/kg 0.2 K 0 % 0 % 0 % 0 m²/s² 0 0 0.68 3
20:00 32 J/kg 1.1 K 0 % 0 % 0 % 0 m²/s² 0 0 1.61 80
21:00 15 J/kg 1.7 K 0 % 0 % 0 % 0 m²/s² 0 0 2.18 80
22:00 18 J/kg 2.6 K 0 % 0 % 0 % 0 m²/s² 0 0 3.17 80
23:00 1 J/kg 2.8 K 0 % 0 % 0 % 0 m²/s² 0 0 3.16 2
 07:59     17:43    Daglengte: 9:44 Zondag 31 Jan
00:00 0 J/kg 3.2 K 0 % 0 % 0 % 0 m²/s² 0 0 4.01 2
01:00 0 J/kg 2.7 K 0 % 0 % 0 % 0 m²/s² 0 0 3.51 3
Temp Baro Wind Neerslag
  EWN Forecast EWN WRFDA DWD ICON FMI HIRLAM MET Norway GFS
 08:02     17:39    Daglengte: 9:37 Vandaag
04:00 5.6° 1018.1 hPa 1.4 m/s 4.4 mm 7.5° 1014.0 hPa 1.9 m/s 10.9 mm 5.3° 1018.6 hPa 1.0 m/s 3.6 mm 6.7° 1018.6 hPa 0.8 m/s 0.0 mm 5.4° 1018.4 hPa 1.3 m/s 7.2° 1016.3 hPa 1.1 m/s
07:00 6.2° 1016.9 hPa 1.3 m/s 6.9 mm 8.5° 1013.7 hPa 1.7 m/s 20.2 mm 6.1° 1017.9 hPa 0.5 m/s 3.7 mm 7.8° 1017.9 hPa 1.0 m/s 0.0 mm 5.4° 1016.6 hPa 1.3 m/s 7.8° 1016.1 hPa 1.6 m/s
10:00 7.6° 1017.6 hPa 1.4 m/s 2.2 mm 9.5° 1014.7 hPa 3.6 m/s 22.8 mm 6.7° 1018.2 hPa 1.0 m/s 0.3 mm 10.0° 1018.2 hPa 0.9 m/s 0.0 mm 7.3° 1017.8 hPa 1.3 m/s 7.9° 1016.9 hPa 0.3 m/s
13:00 9.0° 1017.0 hPa 1.0 m/s 7.0 mm 9.1° 1013.8 hPa 3.5 m/s 25.6 mm 6.9° 1017.9 hPa 0.4 m/s 3.1 mm 12.2° 1016.9 hPa 0.9 m/s 0.0 mm 9.0° 1017.4 hPa 0.9 m/s 8.3° 1015.7 hPa 1.6 m/s
16:00 9.2° 1016.0 hPa 1.2 m/s 9.6 mm 10.0° 1012.2 hPa 3.1 m/s 33.4 mm 6.3° 1016.7 hPa 0.4 m/s 9.0 mm 12.1° 1015.8 hPa 0.7 m/s 0.0 mm 9.3° 1016.6 hPa 1.0 m/s 8.2° 1014.4 hPa 1.2 m/s
19:00 8.5° 1016.5 hPa 1.1 m/s 9.4 mm 8.1° 1014.0 hPa 2.2 m/s 39.2 mm 6.1° 1018.3 hPa 0.7 m/s 3.3 mm 11.0° 1015.7 hPa 1.1 m/s 0.0 mm 8.8° 1016.9 hPa 0.9 m/s 8.4° 1015.4 hPa 0.8 m/s
22:00 8.1° 1015.7 hPa 1.6 m/s 5.1 mm 9.3° 1013.4 hPa 3.9 m/s 40.0 mm 6.1° 1017.4 hPa 0.8 m/s 0.3 mm 10.6° 1014.9 hPa 1.6 m/s 0.0 mm 7.6° 1016.1 hPa 1.4 m/s 8.6° 1015.0 hPa 1.4 m/s
 08:01     17:40    Daglengte: 9:39 Morgen
01:00 8.2° 1013.9 hPa 2.1 m/s 6.4 mm 9.6° 1012.7 hPa 3.9 m/s 43.7 mm 7.5° 1014.2 hPa 1.1 m/s 2.3 mm 11.5° 1012.0 hPa 3.2 m/s 0.0 mm 7.5° 1014.4 hPa 1.6 m/s 8.1° 1014.1 hPa 2.0 m/s
04:00 8.7° 1011.2 hPa 2.3 m/s 14.3 mm 10.2° 1008.2 hPa 5.1 m/s 65.4 mm 7.4° 1013.1 hPa 0.8 m/s 8.1 mm 12.7° 1008.1 hPa 4.7 m/s 0.0 mm 7.8° 1012.1 hPa 2.0 m/s 8.7° 1010.3 hPa 3.3 m/s
07:00 9.3° 1010.4 hPa 2.0 m/s 18.5 mm 10.2° 1007.1 hPa 4.6 m/s 79.2 mm 7.0° 1012.6 hPa 0.9 m/s 11.8 mm 13.6° 1006.7 hPa 6.6 m/s 0.0 mm 8.7° 1011.9 hPa 1.1 m/s 9.0° 1009.1 hPa 2.2 m/s
10:00 9.2° 1012.7 hPa 1.3 m/s 20.3 mm 11.3° 1009.9 hPa 5.0 m/s 97.1 mm 7.1° 1014.1 hPa 0.5 m/s 4.4 mm 12.4° 1008.3 hPa 4.6 m/s 0.0 mm 8.9° 1014.1 hPa 0.7 m/s 9.3° 1010.8 hPa 0.2 m/s
13:00 11.1° 1012.6 hPa 1.9 m/s 20.1 mm 11.7° 1010.1 hPa 5.5 m/s 97.9 mm 9.8° 1013.6 hPa 1.0 m/s 3.4 mm 13.1° 1008.0 hPa 5.2 m/s 0.0 mm 10.7° 1013.8 hPa 0.8 m/s 10.2° 1010.7 hPa 1.6 m/s
16:00 10.5° 1012.0 hPa 1.5 m/s 20.7 mm 11.2° 1008.8 hPa 2.5 m/s 98.8 mm 9.2° 1012.8 hPa 1.0 m/s 1.6 mm 12.4° 1007.4 hPa 4.2 m/s 0.0 mm 10.6° 1012.6 hPa 0.7 m/s 9.8° 1009.9 hPa 1.3 m/s
19:00 8.3° 1013.2 hPa 1.5 m/s 20.9 mm 8.6° 1009.2 hPa 3.2 m/s 99.7 mm 6.8° 1013.9 hPa 1.1 m/s 0.9 mm 10.9° 1009.7 hPa 2.3 m/s 0.0 mm 8.5° 1013.8 hPa 0.9 m/s 7.7° 1011.4 hPa 0.6 m/s
22:00 6.8° 1014.7 hPa 1.3 m/s 18.9 mm 7.0° 1011.4 hPa 2.3 m/s 99.8 mm 5.4° 1015.0 hPa 0.7 m/s 0.7 mm 7.7° 1015.0 hPa 1.1 m/s 6.7° 1012.9 hPa 0.9 m/s
 08:00     17:42    Daglengte: 9:42 Zaterdag 30 Jan
01:00 6.2° 1013.7 hPa 1.1 m/s 6.8 mm 6.3° 1010.9 hPa 1.0 m/s 100.0 mm 4.8° 1013.9 hPa 0.6 m/s 0.0 mm 7.1° 1014.1 hPa 0.9 m/s 5.1° 1013.5 hPa 0.9 m/s
04:00 4.7° 1009.8 hPa 1.7 m/s 0.0 mm 4.6° 1005.4 hPa 2.4 m/s 100.1 mm 4.8° 1010.6 hPa 1.5 m/s 0.0 mm 4.6° 1010.1 hPa 1.5 m/s 3.6° 1010.4 hPa 1.4 m/s
07:00 5.7° 1005.9 hPa 1.7 m/s 7.1 mm 7.1° 1003.3 hPa 3.9 m/s 100.6 mm 5.9° 1005.8 hPa 1.5 m/s 0.7 mm 5.2° 1006.6 hPa 1.5 m/s 5.9° 1006.9 hPa 1.7 m/s
10:00 6.9° 1002.8 hPa 1.6 m/s 23.1 mm 9.9° 999.7 hPa 4.5 m/s 106.8 mm 6.6° 1003.0 hPa 1.5 m/s 2.4 mm 6.6° 1003.3 hPa 1.2 m/s 6.9° 1003.9 hPa 2.0 m/s
13:00 7.9° 1001.2 hPa 1.2 m/s 27.7 mm 8.3° 999.3 hPa 4.9 m/s 115.6 mm 7.7° 1001.7 hPa 0.9 m/s 4.3 mm 7.9° 1001.3 hPa 0.6 m/s 8.8° 1001.0 hPa 1.5 m/s
16:00 7.5° 1000.8 hPa 1.2 m/s 31.8 mm 8.9° 997.8 hPa 3.5 m/s 128.9 mm 7.2° 1000.9 hPa 0.6 m/s 7.2 mm 7.4° 1001.4 hPa 1.0 m/s 7.6° 998.5 hPa 2.2 m/s
19:00 6.8° 1001.1 hPa 0.8 m/s 33.3 mm 7.6° 996.8 hPa 2.0 m/s 131.9 mm 6.2° 1001.4 hPa 0.6 m/s 0.7 mm 6.8° 1001.7 hPa 0.6 m/s 6.5° 999.1 hPa 1.2 m/s
22:00 6.2° 1001.2 hPa 0.7 m/s 45.8 mm 7.3° 998.2 hPa 3.5 m/s 135.4 mm 4.8° 1000.9 hPa 0.4 m/s 1.0 mm 6.3° 1002.2 hPa 0.4 m/s 6.5° 999.4 hPa 2.2 m/s
 07:59     17:43    Daglengte: 9:44 Zondag 31 Jan
01:00 5.7° 1001.0 hPa 0.7 m/s 0.0 mm 6.3° 998.0 hPa 1.9 m/s 136.2 mm 4.5° 999.8 hPa 1.1 m/s 0.0 mm 5.9° 1002.6 hPa 0.2 m/s 5.9° 1000.4 hPa 2.4 m/s
04:00 4.8° 1000.3 hPa 1.0 m/s 92.2 mm 4.8° 1000.3 hPa 1.1 m/s 5.2° 1000.2 hPa 0.8 m/s 92.2 mm
07:00 4.2° 999.3 hPa 1.4 m/s 92.4 mm 4.2° 999.2 hPa 1.5 m/s 4.7° 1000.7 hPa 0.8 m/s 92.4 mm
10:00 6.1° 1000.2 hPa 1.0 m/s 94.8 mm 6.2° 1000.2 hPa 0.9 m/s 5.2° 1000.5 hPa 1.6 m/s 94.8 mm
13:00 8.0° 1001.0 hPa 0.5 m/s 98.5 mm 8.2° 1001.1 hPa 0.4 m/s 6.1° 999.5 hPa 1.6 m/s 98.5 mm
16:00 8.0° 1000.8 hPa 0.7 m/s 101.0 mm 8.1° 1001.1 hPa 0.6 m/s 6.6° 997.5 hPa 1.6 m/s 101.0 mm
19:00 7.9° 1000.7 hPa 0.9 m/s 109.8 mm 8.1° 1001.1 hPa 0.8 m/s 5.6° 996.2 hPa 2.4 m/s 109.8 mm
22:00 7.2° 999.2 hPa 1.2 m/s 117.7 mm 7.3° 999.7 hPa 1.1 m/s 6.5° 994.3 hPa 3.0 m/s 117.7 mm
 07:57     17:45    Daglengte: 9:48 Maandag 01 Feb
01:00 6.5° 997.8 hPa 1.3 m/s 126.7 mm 6.5° 998.2 hPa 1.3 m/s 6.5° 993.7 hPa 1.6 m/s 126.7 mm
04:00 6.1° 997.0 hPa 1.3 m/s 133.5 mm 6.1° 997.3 hPa 1.4 m/s 6.5° 994.0 hPa 0.9 m/s 133.5 mm
07:00 5.8° 996.5 hPa 1.4 m/s 143.6 mm 5.7° 996.4 hPa 1.4 m/s 6.5° 997.4 hPa 0.8 m/s 143.6 mm
10:00 7.6° 998.0 hPa 1.2 m/s 149.9 mm 7.6° 997.8 hPa 1.1 m/s 7.6° 1000.4 hPa 1.6 m/s 149.9 mm
13:00 9.3° 999.4 hPa 0.9 m/s 154.8 mm 9.4° 999.1 hPa 0.9 m/s 7.8° 1003.0 hPa 1.5 m/s 154.8 mm
16:00 9.0° 1001.6 hPa 0.7 m/s 159.4 mm 9.2° 1001.2 hPa 0.7 m/s 6.9° 1005.6 hPa 0.8 m/s 159.4 mm
19:00 8.7° 1003.9 hPa 0.5 m/s 165.5 mm 8.9° 1003.4 hPa 0.5 m/s 6.7° 1009.7 hPa 0.6 m/s 165.5 mm
22:00 7.9° 1008.0 hPa 1.0 m/s 169.2 mm 8.0° 1007.6 hPa 1.0 m/s 6.9° 1011.9 hPa 0.7 m/s 169.2 mm
 07:56     17:46    Daglengte: 9:50 Dinsdag 02 Feb
01:00 7.0° 1011.9 hPa 1.5 m/s 169.3 mm 7.1° 1011.8 hPa 1.5 m/s 5.9° 1013.2 hPa 1.1 m/s 169.3 mm
04:00 6.7° 1013.2 hPa 1.1 m/s 169.3 mm 6.7° 1013.3 hPa 1.1 m/s 6.5° 1012.5 hPa 1.0 m/s 169.3 mm
07:00 6.4° 1014.7 hPa 0.9 m/s 170.5 mm 6.3° 1014.8 hPa 0.8 m/s 7.6° 1013.0 hPa 1.6 m/s 170.5 mm
10:00 9.2° 1014.7 hPa 1.2 m/s 171.1 mm 9.2° 1014.8 hPa 1.1 m/s 9.4° 1013.6 hPa 1.5 m/s 171.1 mm
13:00 11.8° 1014.6 hPa 1.5 m/s 171.5 mm 12.0° 1014.7 hPa 1.5 m/s 10.1° 1013.4 hPa 1.4 m/s 171.5 mm
16:00 11.1° 1014.6 hPa 1.3 m/s 172.6 mm 11.2° 1014.8 hPa 1.2 m/s 10.0° 1012.2 hPa 1.6 m/s 172.6 mm
19:00 10.2° 1014.7 hPa 1.1 m/s 172.7 mm 10.3° 1014.9 hPa 1.0 m/s 8.9° 1012.6 hPa 1.8 m/s 172.7 mm
22:00 8.2° 1014.6 hPa 1.3 m/s 173.0 mm 8.2° 1014.8 hPa 1.3 m/s 9.0° 1011.9 hPa 1.9 m/s 173.0 mm
 07:55     17:48    Daglengte: 9:53 Woensdag 03 Feb
01:00 6.2° 1014.4 hPa 1.7 m/s 173.0 mm 6.0° 1014.7 hPa 1.6 m/s 8.5° 1011.1 hPa 2.2 m/s 173.0 mm
04:00 6.7° 1014.1 hPa 1.7 m/s 173.0 mm 6.6° 1014.5 hPa 1.6 m/s 7.6° 1009.2 hPa 2.3 m/s 173.0 mm
07:00 7.2° 1013.8 hPa 1.6 m/s 173.0 mm 7.2° 1014.3 hPa 1.6 m/s 7.0° 1008.2 hPa 2.1 m/s 173.0 mm
10:00 8.5° 1014.2 hPa 1.3 m/s 173.0 mm 8.4° 1014.8 hPa 1.2 m/s 9.7° 1008.0 hPa 2.7 m/s 173.0 mm
13:00 9.9° 1014.5 hPa 0.9 m/s 173.0 mm 9.6° 1015.3 hPa 0.8 m/s 12.6° 1006.2 hPa 2.5 m/s 173.0 mm
16:00 9.9° 1014.6 hPa 0.8 m/s 173.0 mm 9.8° 1015.4 hPa 0.7 m/s 11.4° 1005.5 hPa 2.3 m/s 173.0 mm
19:00 9.9° 1014.7 hPa 0.7 m/s 173.2 mm 10.0° 1015.5 hPa 0.6 m/s 8.7° 1006.2 hPa 1.9 m/s 173.2 mm
22:00 7.9° 1014.7 hPa 1.4 m/s 173.3 mm 7.8° 1015.5 hPa 1.4 m/s 8.7° 1006.5 hPa 1.5 m/s 173.3 mm
 07:54     17:49    Daglengte: 9:55 Donderdag 04 Feb
01:00 5.8° 1014.7 hPa 2.0 m/s 174.4 mm 5.6° 1015.4 hPa 2.1 m/s 8.5° 1006.5 hPa 1.3 m/s 174.4 mm
07:00 3.8° 1012.2 hPa 2.0 m/s 180.7 mm 3.4° 1013.0 hPa 2.0 m/s 7.7° 1003.2 hPa 1.5 m/s 180.7 mm
13:00 16.6° 1008.6 hPa 1.3 m/s 192.4 mm 17.4° 1009.2 hPa 1.2 m/s 7.5° 1002.4 hPa 2.3 m/s 192.4 mm
19:00 14.4° 1007.5 hPa 1.4 m/s 201.9 mm 15.2° 1007.8 hPa 1.5 m/s 5.0° 1004.8 hPa 0.9 m/s 201.9 mm
 07:52     17:51    Daglengte: 9:59 Vrijdag 05 Feb
01:00 12.9° 1008.6 hPa 1.4 m/s 210.8 mm 13.6° 1008.6 hPa 1.4 m/s 4.8° 1008.8 hPa 0.8 m/s 210.7 mm
07:00 12.5° 1008.5 hPa 1.1 m/s 212.6 mm 13.2° 1008.2 hPa 1.1 m/s 4.9° 1012.0 hPa 1.3 m/s 212.6 mm
13:00 17.0° 1009.0 hPa 0.6 m/s 213.0 mm 18.1° 1008.5 hPa 0.5 m/s 5.4° 1014.7 hPa 1.4 m/s 213.0 mm
19:00 14.0° 1010.2 hPa 1.3 m/s 213.3 mm 14.9° 1009.6 hPa 1.2 m/s 4.6° 1016.9 hPa 2.0 m/s 213.3 mm
 07:51     17:52    Daglengte: 10:01 Zaterdag 06 Feb
01:00 8.6° 1010.8 hPa 1.1 m/s 213.4 mm 9.1° 1010.0 hPa 1.0 m/s 3.4° 1020.0 hPa 2.4 m/s 213.4 mm
07:00 6.8° 1010.3 hPa 0.7 m/s 213.7 mm 7.3° 1009.5 hPa 0.5 m/s 1.6° 1019.5 hPa 2.4 m/s 213.7 mm
13:00 3.0° 1017.9 hPa 3.4 m/s 214.0 mm 3.0° 1017.9 hPa 3.4 m/s 214.0 mm
19:00 2.3° 1017.7 hPa 2.0 m/s 214.1 mm 2.3° 1017.7 hPa 2.0 m/s 214.1 mm
 07:50     17:53    Daglengte: 10:03 Zondag 07 Feb
01:00 3.2° 1014.8 hPa 1.6 m/s 1.2 mm
07:00 2.4° 1014.3 hPa 1.6 m/s 1.1 mm
13:00 6.0° 1013.8 hPa 1.8 m/s 0.6 mm
19:00 3.3° 1014.8 hPa 1.3 m/s 1.1 mm
 07:48     17:55    Daglengte: 10:07 Maandag 08 Feb
01:00 2.0° 1015.5 hPa 0.9 m/s 0.5 mm
07:00 1.7° 1014.2 hPa 0.9 m/s 0.8 mm
13:00 6.5° 1013.6 hPa 0.9 m/s 0.6 mm
19:00 3.7° 1014.7 hPa 1.0 m/s 0.6 mm
 07:47     17:56    Daglengte: 10:09 Dinsdag 09 Feb
01:00 2.6° 1015.9 hPa 1.0 m/s 1.2 mm
07:00 1.7° 1015.3 hPa 1.2 m/s 0.8 mm
13:00 5.9° 1014.5 hPa 1.1 m/s 1.4 mm
19:00 3.1° 1015.3 hPa 0.8 m/s 1.4 mm
 07:45     17:58    Daglengte: 10:13 Woensdag 10 Feb
01:00 2.0° 1016.9 hPa 0.9 m/s 0.6 mm
07:00 1.5° 1016.4 hPa 0.9 m/s 1.2 mm
13:00 5.8° 1015.6 hPa 0.9 m/s 0.0 mm
19:00 2.8° 1016.1 hPa 0.8 m/s 0.9 mm
 07:44     17:59    Daglengte: 10:15 Donderdag 11 Feb
01:00 1.6° 1017.1 hPa 0.8 m/s 0.6 mm
07:00 0.7° 1016.4 hPa 0.9 m/s 1.6 mm
13:00 5.8° 1015.6 hPa 1.0 m/s 1.3 mm
19:00 2.6° 1016.4 hPa 0.7 m/s 0.5 mm
 07:43     18:01    Daglengte: 10:18 Vrijdag 12 Feb
01:00 1.3° 1017.3 hPa 1.0 m/s 1.5 mm
FMI Hirlam - 7.5 km EWN WRFDA - 12 km DWD ICON - 7 km GFS - 25 km Basiskaart






























































Updatetijd (Europe/Amsterdam) Resolutie Lengte Stap
FMI Hirlam 01:00, 07:00, 13:00, 19:00 7.5 km 49h 1h
EWN WRFDA 21:30, 03:30, 09:30, 15:30 12 km 73h 1h
DWD ICON 22:45, 04:45, 10:45, 16:45 7 km 75h 1h
GFS 01:00, 07:00, 13:00, 19:00 25 km 237h 3h
30+ mm
25-30 mm
20-25 mm
15-20 mm
10-15 mm
6-10 mm
4-6 mm
2-4 mm
1-2 mm
0.5-1 mm
0.2-0.5 mm
0.1-0.2 mm
30+ mm
25-30 mm
20-25 mm
15-20 mm
10-15 mm
6-10 mm
4-6 mm
2-4 mm
1-2 mm
0.5-1 mm
0.2-0.5 mm
0.1-0.2 mm
Sneeuwval
Natte sneeuw
Hagel
Vorst
30+ mm
25-30 mm
20-25 mm
15-20 mm
10-15 mm
6-10 mm
4-6 mm
2-4 mm
1-2 mm
0.5-1 mm
0.2-0.5 mm
0.1-0.2 mm
Sneeuwval
Natte sneeuw
Hagel
Vorst
Onweer
50 mm
40 mm
30 mm
26 mm
22 mm
18 mm
14 mm
10 mm
9 mm
8 mm
7 mm
6 mm
5 mm
4.5 mm
4 mm
3.5 mm
3 mm
2.5 mm
2 mm
1.5 mm
1 mm
0.8 mm
0.6 mm
0.4 mm
0.2 mm
0.05 mm
35°
30°
25°
20°
15°
10°
-5°
-10°
-15°
-20°
-25°
-30°
-35°
33> m/s
29 m/s
25 m/s
21 m/s
17 m/s
14 m/s
11 m/s
8 m/s
5 m/s
3 m/s
0 m/s
2600 J/kg
2400 J/kg
2200 J/kg
2000 J/kg
1800 J/kg
1600 J/kg
1400 J/kg
1200 J/kg
1000 J/kg
800 J/kg
600 J/kg
400 J/kg
200 J/kg
70 dBZ
65 dBZ
60 dBZ
55 dBZ
50 dBZ
45 dBZ
40 dBZ
35 dBZ
30 dBZ
25 dBZ
20 dBZ
15 dBZ
10 dBZ
5 dBZ
-1 K
-2 K
-3 K
-4 K
-5 K
-6 K
-7 K
-8 K
-9 K
950 m²/s²
900 m²/s²
850 m²/s²
800 m²/s²
750 m²/s²
700 m²/s²
650 m²/s²
600 m²/s²
550 m²/s²
500 m²/s²
450 m²/s²
400 m²/s²
350 m²/s²
300 m²/s²
250 m²/s²
200 m²/s²
150 m²/s²
100 m²/s²
46 m/s
44 m/s
42 m/s
40 m/s
38 m/s
36 m/s
34 m/s
32 m/s
30 m/s
28 m/s
26 m/s
24 m/s
22 m/s
20 m/s
16 m/s
12 m/s
8 m/s
4 m/s
30 m/s
28 m/s
26 m/s
24 m/s
22 m/s
20 m/s
18 m/s
16 m/s
14 m/s
12 m/s
10 m/s
8 m/s
6 m/s
4 m/s
2 m/s
3.0
2.8
2.6
2.4
2.2
2.0
1.8
1.6
1.4
1.2
1.0
0.8
0.6
0.4
0.2
15
14
13
12
11
10
9
8
7
6
5
4
3
2
1
90%
80%
70%
60%
50%
40%
30%
20%
10%
42
40
38
36
34
32
30
28
26
24
22
20
18
16
14
12
90+ cm
80-90 cm
70-80 cm
60-70 cm
50-60 cm
40-50 cm
30-40 cm
20-30 cm
10-20 cm
1-10 cm
Sneeuwval
Natte sneeuw
Regen
>120 mm
115 mm
110 mm
105 mm
100 mm
95 mm
90 mm
85 mm
80 mm
75 mm
70 mm
65 mm
60 mm
55 mm
50 mm
45 mm
45 mm
40 mm
35 mm
30 mm
25 mm
20 mm
15 mm
10 mm
5 mm
0.1 mm
960 hPa
880 hPa
800 hPa
720 hPa
640 hPa
560 hPa
584 gpdm
568 gpdm
552 gpdm
536 gpdm
520 gpdm
504 gpdm
488 gpdm
Extreem zwaar Noodweer Kans op onweer
15% 15% 5% 50% 15%

Dag




Kaart






35°
30°
25°
20°
15°
10°
-5°
-10°
-15°
-20°
-25°
-30°
-35°
33> m/s
29 m/s
25 m/s
21 m/s
17 m/s
14 m/s
11 m/s
8 m/s
5 m/s
3 m/s
0 m/s
Extreem zwaar Noodweer Kans op onweer
15% 15% 5% 50% 15%
>120 mm
115 mm
110 mm
105 mm
100 mm
95 mm
90 mm
85 mm
80 mm
75 mm
70 mm
65 mm
60 mm